Weather History for Lorain / Elyria, OH

Change the Weather History Date:

Friday, February 8, 2013

  Actual Average (KCLE) Record (KCLE)
Temperature  
Mean Temperature 32 °F 29 °F  
Max Temperature 39 °F 36 °F 69 °F (1937)
Min Temperature 26 °F 23 °F -8 °F (1977)
Degree Days  
Heating Degree Days 32 36  
Month to date heating degree days 288  
Since 1 July heating degree days 3540  
Cooling Degree Days 0 0  
Month to date cooling degree days 0  
Year to date cooling degree days 0  
Moisture  
Dew Point 26 °F    
Average Humidity 83    
Maximum Humidity 100    
Minimum Humidity 65    
Precipitation  
Precipitation 0.20 in 0.08 in 0.64 in (1971)
Month to date precipitation 0.64  
Year to date precipitation 3.36  
Snow  
Snow 0.00 in 0.50 in - ()
Month to date snowfall 4.4  
Since 1 July snowfall 41.7  
Snow Depth -    
Sea Level Pressure  
Sea Level Pressure 29.95 in    
Wind  
Wind Speed 17 mph (NW)    
Max Wind Speed 26 mph    
Max Gust Speed 37 mph    
Visibility 5 miles    
Events Rain , Snow    
T = Trace of Precipitation, MM = Missing Value Source: NWS Daily Summary

Daily Weather History Graph

Daily Weather History Graph

Search for Another Location

Airport:

Trip Planner

Search our weather history database for the weather conditions in past years. The results will help you decide how hot, cold, wet, or windy it might be!

Date:

Astronomy

Feb. 08, 2013 Rise Set
Actual Time 7:32 AM EST 5:54 PM EST
Civil Twilight 7:03 AM EST 6:23 PM EST
Nautical Twilight 6:30 AM EST 6:55 PM EST
Astronomical Twilight 5:58 AM EST 7:27 PM EST
Moon 6:00 AM EST (2/8) 4:25 PM EST (2/8)
Length of Visible Light 11h 19m
Length of Day
10h 22m
Waning Crescent, 3% of the Moon is Illuminated
Feb 8
Waning Crescent
Feb 10
New
Feb 17
First Quarter
Feb 25
Full
Mar 4
Last Quarter

Hourly Weather History & Observations

Time (EST) Temp. Windchill Dew Point Humidity Pressure Visibility Wind Dir Wind Speed Gust Speed Precip Events Conditions
12:53 AM 39.9 °F 31.4 °F 28.9 °F 65% 29.81 in 10.0 mi South 16.1 mph - N/A   Overcast
1:53 AM 39.9 °F 31.1 °F 30.0 °F 68% 29.78 in 10.0 mi South 17.3 mph 25.3 mph N/A   Overcast
2:53 AM 39.9 °F 32.9 °F 32.0 °F 73% 29.78 in 10.0 mi South 11.5 mph - 0.00 in Rain Light Rain
3:53 AM 39.9 °F 32.5 °F 33.1 °F 77% 29.74 in 9.0 mi South 12.7 mph - 0.00 in Rain Light Rain
4:53 AM 39.9 °F 32.5 °F 34.0 °F 79% 29.73 in 6.0 mi South 12.7 mph - 0.03 in Rain Light Rain
5:53 AM 39.0 °F 32.3 °F 36.0 °F 89% 29.74 in 5.0 mi SW 10.4 mph - 0.10 in Rain Light Rain
6:53 AM 37.9 °F 29.2 °F 36.0 °F 93% 29.76 in 9.0 mi West 15.0 mph 24.2 mph 0.06 in Rain Light Rain
7:26 AM 37.4 °F 28.9 °F 33.8 °F 87% 29.76 in 9.0 mi West 13.8 mph - 0.00 in Rain Light Rain
7:53 AM 35.1 °F 25.2 °F 33.1 °F 92% 29.80 in 3.0 mi West 16.1 mph 25.3 mph 0.00 in   Overcast
7:57 AM 35.6 °F 25.5 °F 33.8 °F 93% 29.79 in 2.5 mi West 17.3 mph 25.3 mph N/A   Overcast
8:19 AM 33.8 °F 22.8 °F 30.2 °F 87% 29.80 in 1.8 mi WNW 18.4 mph 24.2 mph 0.00 in Snow Light Snow
8:53 AM 32.0 °F 20.8 °F 30.0 °F 92% 29.85 in 1.8 mi WNW 17.3 mph - 0.01 in   Overcast
9:14 AM 30.2 °F 18.5 °F 30.2 °F 100% 29.84 in 2.0 mi WNW 17.3 mph 24.2 mph 0.00 in Snow Light Snow
9:29 AM 30.2 °F 18.5 °F 28.4 °F 93% 29.84 in 1.8 mi WNW 17.3 mph 24.2 mph 0.00 in Snow Light Snow
9:51 AM 30.2 °F 18.9 °F 28.4 °F 93% 29.85 in 0.8 mi WNW 16.1 mph 25.3 mph 0.00 in Snow Light Snow
9:53 AM 30.9 °F 20.2 °F 28.9 °F 92% 29.87 in 0.8 mi NW 15.0 mph 25.3 mph 0.00 in Snow Light Snow
10:17 AM 30.2 °F 18.5 °F 28.4 °F 93% 29.87 in 1.2 mi NW 17.3 mph 24.2 mph 0.00 in Snow Light Snow
10:35 AM 30.2 °F 19.3 °F 28.4 °F 93% 29.88 in 2.0 mi NNW 15.0 mph 27.6 mph 0.00 in Snow Light Snow
10:51 AM 30.2 °F 17.8 °F 26.6 °F 86% 29.89 in 1.2 mi NNW 19.6 mph 28.8 mph 0.00 in Snow Light Snow
10:53 AM 30.0 °F 17.9 °F 27.0 °F 88% 29.92 in 1.2 mi NNW 18.4 mph 28.8 mph 0.00 in Snow Light Snow
11:23 AM 30.2 °F 17.8 °F 26.6 °F 86% 29.92 in 2.5 mi NNW 19.6 mph 27.6 mph 0.00 in Snow Light Snow
11:31 AM 30.2 °F 17.4 °F 26.6 °F 86% 29.92 in 4.0 mi NNW 20.7 mph 28.8 mph 0.00 in Snow Light Snow
11:49 AM 28.4 °F 15.4 °F 24.8 °F 86% 29.94 in 2.5 mi NNW 19.6 mph 29.9 mph 0.00 in Snow Light Snow
11:53 AM 28.9 °F 16.1 °F 25.0 °F 85% 29.96 in 2.5 mi NNW 19.6 mph 28.8 mph 0.00 in Snow Light Snow
12:03 PM 28.4 °F 16.2 °F 24.8 °F 86% 29.95 in 1.8 mi NNW 17.3 mph 31.1 mph 0.00 in Snow Light Snow
12:05 PM 28.4 °F 17.0 °F 24.8 °F 86% 29.95 in 2.0 mi NNW 15.0 mph 31.1 mph 0.00 in Snow Light Snow
12:17 PM 28.4 °F 16.2 °F 24.8 °F 86% 29.95 in 4.0 mi NNW 17.3 mph 32.2 mph 0.00 in Snow Light Snow
12:40 PM 28.4 °F 14.4 °F 24.8 °F 86% 29.96 in 2.5 mi NNW 23.0 mph 31.1 mph 0.00 in Snow Light Snow
12:53 PM 28.0 °F 13.0 °F 24.1 °F 85% 30.00 in 3.0 mi NNW 26.5 mph 36.8 mph 0.00 in Snow Light Snow
1:00 PM 28.4 °F 15.4 °F 23.0 °F 80% 29.97 in 2.5 mi NNW 19.6 mph 36.8 mph 0.00 in Snow Light Snow
1:08 PM 28.4 °F 15.4 °F 23.0 °F 80% 29.98 in 5.0 mi NNW 19.6 mph 29.9 mph 0.00 in Snow Light Snow
1:14 PM 28.4 °F 13.8 °F 23.0 °F 80% 29.98 in 2.5 mi NNW 25.3 mph 33.4 mph 0.00 in Snow Light Snow
1:28 PM 28.4 °F 15.1 °F 23.0 °F 80% 29.99 in 4.0 mi NNW 20.7 mph 28.8 mph 0.00 in Snow Light Snow
1:53 PM 28.9 °F 15.8 °F 23.0 °F 78% 30.03 in 5.0 mi NNW 20.7 mph 28.8 mph 0.00 in Snow Light Snow
2:53 PM 28.9 °F 16.1 °F 21.9 °F 75% 30.06 in 6.0 mi North 19.6 mph 31.1 mph 0.00 in Snow Light Snow
3:53 PM 28.0 °F 13.3 °F 21.9 °F 78% 30.10 in 8.0 mi North 25.3 mph 31.1 mph 0.00 in Snow Light Snow
4:53 PM 27.0 °F 13.9 °F 21.0 °F 78% 30.13 in 7.0 mi North 18.4 mph 25.3 mph 0.00 in   Overcast
5:53 PM 26.1 °F 13.6 °F 19.9 °F 78% 30.17 in 10.0 mi North 16.1 mph 27.6 mph 0.00 in Snow Light Snow
6:53 PM 27.0 °F 13.5 °F 21.0 °F 78% 30.21 in 7.0 mi North 19.6 mph 28.8 mph 0.00 in Snow Light Snow
7:53 PM 27.0 °F 15.2 °F 19.9 °F 75% 30.24 in 9.0 mi North 15.0 mph 27.6 mph 0.00 in Snow Light Snow
8:53 PM 26.1 °F 12.3 °F 19.9 °F 78% 30.26 in 9.0 mi North 19.6 mph 25.3 mph 0.00 in Snow Light Snow
9:53 PM 26.1 °F 13.6 °F 19.0 °F 75% 30.28 in 9.0 mi North 16.1 mph - 0.00 in   Overcast
10:53 PM 26.1 °F 13.6 °F 19.0 °F 75% 30.30 in 10.0 mi NNW 16.1 mph 21.9 mph 0.00 in   Overcast
11:53 PM 26.1 °F 15.0 °F 19.0 °F 75% 30.31 in 10.0 mi North 12.7 mph 20.7 mph N/A   Overcast